Simultaneous Nadir Overpasses (SNOs) Predictions

Prediction of SNOs between METOP-B and TERRA Satellite Orbit:

Table of predicted SNOs for the next 14.0 days since TLE Epoch: 7/9/2022
Index Date (METOP-B) Time (METOP-B) Lat,Lon (METOP-B) SZA (METOP-B ) Date (TERRA) Time (TERRA) Lat,Lon (TERRA) SZA (TERRA ) Distance(km) Time Diff (sec)
1 07/09/2022 11:42:57 -81.14,-135.80 119.16 07/09/2022 11:44:01 -81.15,-135.61 119.11 3.21 64
2 07/09/2022 12:33:35 81.17, 32.44 60.97 07/09/2022 12:33:26 81.18, 32.49 60.97 0.95 9
3 07/12/2022 07:17:18 -81.16, -68.97 118.75 07/12/2022 07:18:09 -81.16, -69.01 118.73 0.70 51
4 07/12/2022 08:07:57 81.17, 98.87 61.32 07/12/2022 08:07:35 81.16, 98.70 61.29 3.24 22
5 07/15/2022 02:51:40 -81.16, -2.55 118.34 07/15/2022 02:52:17 -81.16, -2.48 118.31 1.23 37
6 07/15/2022 03:42:19 81.17, 165.28 61.73 07/15/2022 03:41:43 81.16, 165.19 61.70 1.60 36
7 07/17/2022 22:26:02 -81.16, 63.84 117.89 07/17/2022 22:26:25 -81.16, 63.96 117.86 2.15 23
8 07/17/2022 23:16:40 81.18,-127.97 62.23 07/17/2022 23:15:50 81.19,-128.02 62.21 0.98 50
9 07/20/2022 18:00:23 -81.15, 130.20 117.39 07/20/2022 18:00:32 -81.16, 130.33 117.37 2.21 9



Historial Predications of SNOs between METOP-B and TERRA
